Погода в Увэе

Китай     37°55′36″N   102°38′17″E
В апреле 2022 года жителям России запретили посещать сайт meteo.paraplan.net по решению Генеральной прокуратуры. Аудитория сайта уменьшилась в 10 раз. Владельцы сайта не видят смысла в поддержке погодного сервера в таких условиях. Сайт будет закрыт в октябре.
темп.,
°C
ветер,
м/с
пор.,
м/с
влажн.,
%
обл.,
%
осадки,
мм/ч
давл.,
гПа
погр.,
м
30 сентября, пт
пт3023:00+19вюв112499 0.0 100911
02:00+17з222951 0.0 100817
05:00+16всв0133100 0.0 100611
08:00+16з223255 0.0 100518
11:00+22вюв1123100 0.0 1003360
14:00+26ссз3318100 0.0 1000655
17:00+25сз6819100 0.0 1001857
20:00+20зсз4923100 0.0 1004160
1 октября, сб
сб123:00+19з2225100 0.0 100524
02:00+18юз1131100 0.0 100511
05:00+17ю223510 0.0 100413
08:00+17ююв233714 0.0 100430
11:00+25юв35250 0.0 1002622
14:00+29всв32130 0.0 9991483
17:00+28ссв54135 0.0 9991960
20:00+21сз81324100 0.0 1004436
2 октября, вс
вс223:00+19сз51026100 0.0 1007419
02:00+16зсз352949 0.0 1009150
05:00+14сз51030100 0.0 1011545
08:00+12ссз592666 0.0 1014605
11:00+14ссз7621100 0.0 10151058
14:00+17ссз88185 0.0 10151599
17:00+15с77185 0.0 10161419
20:00+12ссз582085 0.0 1021663
3 октября, пн
пн323:00+12ссз6717100 0.0 1023907
02:00+8с235787 0.1 1025199
05:00+9с124112 0.0 102499
08:00+9сз341692 0.0 1027405
11:00+10с221258 0.0 1027985
14:00+13св211369 0.0 10251403
17:00+14всв321380 0.0 10241514
20:00+14всв331393 0.0 10251073
4 октября, вт
вт423:00+12вюв472818 0.0 1025213
02:00+10вюв48445 0.0 1024308
05:00+9всв465195 0.0 1023238
08:00+8всв344512 0.0 1025375
11:00+11св22374 0.0 1024833
14:00+15св12295 0.0 10191202
17:00+17ю222841 0.0 10161274
20:00+15всв4734100 0.0 1019431